Regional Weather Roundup
Issued by NWS

Home | Current Version | Previous Version | Graphics & Text | Print | Product List | Glossary Off
Versions: 1 2 3 4 5 6 7 8 9 10 11 12 13 14 15 16 17 18 19 20 21 22 23 24 25 26 27 28 29 30 31 32 33 34 35 36 37 38 39 40 41 42 43 44 45 46 47 48 49 50

000
ASUS43 KFSD 010502
RWRSD

WEATHER ROUNDUP FOR SOUTH DAKOTA
NATIONAL WEATHER SERVICE SIOUX FALLS SD
1200 AM CDT MON SEP 01 2014

NOTE: "FAIR" INDICATES FEW OR NO CLOUDS BELOW 12,000 FEET WITH NO
SIGNIFICANT WEATHER AND/OR OBSTRUCTIONS TO VISIBILITY.


SDZ001>005-009-010-012>017-010600-
NORTHWEST AND NORTH CENTRAL SOUTH DAKOTA

CITY           SKY/WX    TMP DP  RH WIND       PRES   REMARKS
BUFFALO          N/A     50  48  93 W9        29.79F
FAITH            N/A     56  50  80 W5        29.80R
MOBRIDGE       MOCLDY    63  59  87 NW7       29.74R
$$

SDZ012>016-024>037-041>051-057-063-072>074-010600-
SOUTHWEST AND SOUTH CENTRAL SOUTH DAKOTA

CITY           SKY/WX    TMP DP  RH WIND       PRES   REMARKS
RAPID CTY ARPT CLEAR     52  49  89 NW8       29.89S
PIERRE         CLOUDY    64  61  90 W14       29.76R
CUSTER         PTCLDY    48  42  80 NW5       29.97R
ELLSWORTH AFB  CLEAR     51  50  94 W8        29.88F
PHILIP         PTCLDY    57  54  89 W5        29.82S
PINE RIDGE     CLEAR     51  50  96 W3        29.89R
WINNER         CLOUDY    61  58  90 W8        29.79R
$$

SDZ004>011-016>023-039-040-010600-
NORTHEAST SOUTH DAKOTA

CITY           SKY/WX    TMP DP  RH WIND       PRES   REMARKS
ABERDEEN       CLOUDY    62  61  96 N5        29.69S
WATERTOWN      MOCLDY    63  61  93 W6        29.71S
SISSETON         N/A     63  63 100 W3        29.68R
$$

SDZ017-020-022-023-036>040-048>070-010600-
SOUTHEAST SOUTH DAKOTA

CITY           SKY/WX    TMP DP  RH WIND       PRES   REMARKS
SIOUX FALLS    MOCLDY    61  59  93 NW5       29.70R
HURON          CLOUDY    62  60  93 SW3       29.70R
CHAMBERLAIN    DRIZZLE   63  61  95 W8        29.75R
MITCHELL       CLOUDY    64  61  90 W8        29.73R
YANKTON        MOCLDY    63  59  88 NW8       29.72R
$$

ABBREVIATIONS USED IN REMARKS
   TC - TEMPERATURE IN CELSIUS
  WCI - WIND CHILL INDEX
   HX - HEAT INDEX
  VSB - VISIBILITY




USA.gov is the U.S. government's official web portal to all federal, state and local government web resources and services.